Date String (YYYY-MM-DD hh:mm:ss) UTC,Instrument flags,Ambient pressure (hPa),Sample flow (lpm),Bypass flow (lpm),Sample temperature (°C),Ambient temperature (°C),ASC tube jacket temperature (°C),LED temperature (°C),Box temperature (°C),Sample RH (%),Span deviation,Mass concentration (μg/m³),Mass concentration (μg/m³),Mass concentration (μg/m³)
DateTimeUTC,F1_M11,P_M11,Q1_M11,Q2_M11,T1_M11,T2_M11,T3_M11,T4_M11,T5_M11,U1_M11,ZSPAN_M11,X0_M11,X2_M11,X1_M11
2023-01-21 17:00:00,,0826.5,5.00,0.00,22.5,21.0,00.0,31.3,24.3,08.4,0000.0,0008.59,0005.38,0005.12
2023-01-21 17:01:00,,0826.5,4.98,0.00,22.5,20.9,00.0,31.3,24.3,08.5,0000.0,0008.54,0005.40,0005.13
2023-01-21 17:02:00,,0826.5,4.96,0.00,22.5,20.9,00.0,31.3,24.3,08.5,0000.0,0008.63,0005.42,0005.14
2023-01-21 17:03:00,,0826.5,4.97,0.00,22.5,20.9,00.0,31.2,24.3,08.5,0000.0,0008.66,0005.44,0005.15
2023-01-21 17:04:00,,0826.5,5.01,0.00,22.4,20.9,00.0,31.2,24.3,08.5,0000.0,0008.02,0005.43,0005.15
2023-01-21 17:05:00,,0826.5,5.01,0.00,22.4,20.9,00.0,31.2,24.2,08.7,0000.0,0008.03,0005.41,0005.16
2023-01-21 17:06:00,,0826.5,5.00,0.00,22.4,20.9,00.0,31.2,24.2,08.6,0000.0,0008.04,0005.40,0005.16
2023-01-21 17:07:00,,0826.5,5.00,0.00,22.4,20.8,00.0,31.2,24.2,08.6,0000.0,0008.09,0005.41,0005.16
2023-01-21 17:08:00,,0826.5,5.00,0.00,22.4,20.7,00.0,31.2,24.1,08.7,0000.0,0008.01,0005.39,0005.16
2023-01-21 17:09:00,,0826.5,5.01,0.00,22.4,20.6,00.0,31.2,24.1,08.6,0000.2,0008.14,0005.37,0005.14
2023-01-21 17:10:00,,0826.5,5.01,0.00,22.3,20.5,00.0,31.2,24.0,08.6,0000.1,0008.63,0005.35,0005.14
2023-01-21 17:11:00,,0826.5,5.00,0.00,22.3,20.4,00.0,31.1,23.9,08.7,0000.0,0009.15,0005.34,0005.13
2023-01-21 17:12:00,,0826.5,4.99,0.00,22.3,20.4,00.0,31.1,23.9,08.8,0000.0,0009.22,0005.34,0005.13
2023-01-21 17:13:00,,0826.5,5.00,0.00,22.2,20.4,00.0,31.1,23.9,08.9,0000.0,0009.17,0005.34,0005.13
2023-01-21 17:14:00,,0826.6,5.00,0.00,22.2,20.4,00.0,31.1,23.9,08.9,0000.0,0009.16,0005.35,0005.13
2023-01-21 17:15:00,,0826.5,5.00,0.00,22.2,20.5,00.0,31.1,23.9,08.9,0000.0,0009.03,0005.36,0005.14
2023-01-21 17:16:00,,0826.6,5.00,0.00,22.2,20.5,00.0,31.1,23.9,08.9,0000.0,0008.99,0005.37,0005.13
2023-01-21 17:17:00,,0826.5,5.01,0.00,22.2,21.0,00.0,31.0,24.0,08.8,0000.0,0008.95,0005.38,0005.14
2023-01-21 17:18:00,,0826.6,5.00,0.00,22.3,22.2,00.0,31.0,24.2,08.9,0000.0,0008.97,0005.40,0005.14
2023-01-21 17:19:00,,0826.7,5.00,0.00,22.4,22.8,00.0,31.1,24.4,09.1,0000.0,0008.96,0005.39,0005.14
2023-01-21 17:20:00,,0826.7,5.00,0.00,22.5,22.5,00.0,31.1,24.5,08.8,0000.0,0008.82,0005.43,0005.15
2023-01-21 17:21:00,,0826.7,4.98,0.00,22.5,22.1,00.0,31.1,24.4,08.8,0000.0,0008.26,0005.43,0005.16
2023-01-21 17:22:00,,0826.7,5.00,0.00,22.5,21.8,00.0,31.1,24.4,08.8,0000.0,0007.77,0005.44,0005.17
2023-01-21 17:23:00,,0826.7,4.99,0.00,22.5,21.6,00.0,31.2,24.3,08.7,0000.0,0007.72,0005.44,0005.19
2023-01-21 17:24:00,,0826.7,4.99,0.00,22.5,21.5,00.0,31.2,24.3,08.9,0000.0,0007.71,0005.46,0005.21
2023-01-21 17:25:00,,0826.7,4.99,0.00,22.5,21.4,00.0,31.2,24.3,09.0,0000.0,0007.78,0005.49,0005.23
2023-01-21 17:26:00,,0826.7,5.00,0.00,22.5,21.3,00.0,31.2,24.3,10.3,0000.0,0008.73,0005.56,0005.27
2023-01-21 17:27:00,,0826.7,5.01,0.00,22.5,21.2,00.0,31.2,24.3,10.7,0000.0,0009.12,0005.61,0005.33
2023-01-21 17:28:00,,0826.7,5.01,0.00,22.5,21.2,00.0,31.2,24.3,10.8,0000.0,0009.24,0005.65,0005.37
2023-01-21 17:29:00,,0826.7,4.99,0.00,22.5,21.2,00.0,31.2,24.3,10.7,-000.3,0009.93,0005.69,0005.42
2023-01-21 17:30:00,,0826.7,4.99,0.00,22.5,21.2,00.0,31.2,24.3,10.8,-000.4,0010.07,0005.77,0005.47
2023-01-21 17:31:00,,0826.7,4.99,0.00,22.5,21.2,00.0,31.2,24.3,10.7,-000.4,0010.16,0005.81,0005.51
2023-01-21 17:32:00,,0826.7,5.01,0.00,22.5,21.2,00.0,31.2,24.4,10.5,-000.0,0010.22,0005.87,0005.56
2023-01-21 17:33:00,,0826.8,5.00,0.00,22.5,21.2,00.0,31.2,24.4,10.5,-000.3,0010.35,0005.95,0005.62
2023-01-21 17:34:00,,0826.8,4.99,0.00,22.5,21.2,00.0,31.2,24.4,10.2,-000.4,0010.45,0006.01,0005.67
2023-01-21 17:35:00,,0826.7,5.00,0.00,22.5,21.2,00.0,31.2,24.4,09.6,-000.6,0010.52,0006.06,0005.71
2023-01-21 17:36:00,,0826.7,5.00,0.00,22.5,21.2,00.0,31.2,24.4,09.5,-000.2,0010.52,0006.08,0005.74
2023-01-21 17:37:00,,0826.8,5.01,0.00,22.6,21.2,00.0,31.2,24.4,09.4,0000.1,0009.79,0006.07,0005.76
2023-01-21 17:38:00,,0826.8,5.01,0.00,22.6,21.2,00.0,31.2,24.4,09.2,-000.5,0009.55,0006.04,0005.75
2023-01-21 17:39:00,,0826.8,5.01,0.00,22.6,21.2,00.0,31.2,24.4,09.9,-001.1,0009.62,0006.03,0005.75
2023-01-21 17:40:00,,0826.8,4.99,0.00,22.6,21.2,00.0,31.3,24.4,09.4,-001.1,0009.06,0006.04,0005.76
2023-01-21 17:41:00,,0826.8,5.00,0.00,22.6,21.2,00.0,31.3,24.4,09.1,-001.2,0008.99,0006.05,0005.77
2023-01-21 17:42:00,,0826.8,4.99,0.00,22.6,21.2,00.0,31.3,24.4,09.4,-001.3,0008.97,0006.06,0005.79
2023-01-21 17:43:00,,0826.8,5.00,0.00,22.6,21.2,00.0,31.3,24.4,09.5,-001.4,0009.05,0006.09,0005.81
2023-01-21 17:44:00,,0826.8,5.00,0.00,22.6,21.2,00.0,31.3,24.4,09.4,-001.1,0009.07,0006.10,0005.82
2023-01-21 17:45:00,,0826.8,5.00,0.00,22.6,21.2,00.0,31.3,24.4,09.2,-000.8,0009.07,0006.10,0005.82
2023-01-21 17:46:00,,0826.8,4.99,0.00,22.6,21.1,00.0,31.3,24.4,09.3,-000.4,0009.11,0006.12,0005.84
2023-01-21 17:47:00,,0826.8,5.00,0.00,22.6,21.1,00.0,31.3,24.4,09.2,0000.0,0009.09,0006.13,0005.86
2023-01-21 17:48:00,,0827.0,5.01,0.00,22.5,21.1,00.0,31.3,24.4,09.2,0000.0,0009.06,0006.16,0005.89
2023-01-21 17:49:00,,0827.0,4.99,0.00,22.5,21.1,00.0,31.3,24.3,09.2,0000.0,0009.46,0006.21,0005.91
2023-01-21 17:50:00,,0827.1,5.01,0.00,22.5,21.0,00.0,31.3,24.3,09.1,0000.0,0009.49,0006.23,0005.94
2023-01-21 17:51:00,,0827.0,5.00,0.00,22.5,21.0,00.0,31.3,24.3,09.1,-000.4,0009.50,0006.26,0005.98
2023-01-21 17:52:00,,0826.9,4.99,0.00,22.5,20.9,00.0,31.3,24.3,09.3,-000.3,0010.05,0006.30,0006.02
2023-01-21 17:53:00,,0826.9,4.99,0.00,22.5,20.9,00.0,31.2,24.2,09.4,-000.4,0010.35,0006.33,0006.06
2023-01-21 17:54:00,,0826.9,4.99,0.00,22.4,20.8,00.0,31.2,24.2,09.3,-001.1,0010.39,0006.32,0006.07
2023-01-21 17:55:00,,0826.9,4.98,0.00,22.4,20.8,00.0,31.2,24.2,09.5,-001.2,0010.39,0006.36,0006.11
2023-01-21 17:56:00,,0826.9,5.00,0.00,22.4,20.7,00.0,31.2,24.1,09.4,-001.1,0010.42,0006.41,0006.15
2023-01-21 17:57:00,,0826.9,4.99,0.00,22.4,21.1,00.0,31.2,24.2,09.6,-001.1,0010.52,0006.48,0006.20
2023-01-21 17:58:00,,0826.9,5.01,0.00,22.5,22.2,00.0,31.2,24.4,09.8,-001.1,0010.74,0006.59,0006.28
2023-01-21 17:59:00,,0826.9,4.99,0.00,22.6,22.7,00.0,31.2,24.6,09.8,-000.6,0011.19,0006.70,0006.36
